Weather History for Plattsburgh, NY

Change the Weather History Date:

Tuesday, January 8, 2013

  Actual Average Record
Temperature  
Mean Temperature 20 °F 18 °F  
Max Temperature 38 °F 28 °F 47 °F (1989)
Min Temperature 1 °F 7 °F -21 °F (1968)
Degree Days  
Heating Degree Days 45 47  
Month to date heating degree days 412 373  
Since 1 July heating degree days 3071 3259  
Moisture  
Dew Point 16 °F    
Average Humidity 80    
Maximum Humidity 96    
Minimum Humidity 64    
Precipitation  
Precipitation 0.00 in - 0.60 in (1979)
Month to date precipitation 0.07  
Year to date precipitation 0.07  
Sea Level Pressure  
Sea Level Pressure 30.25 in    
Wind  
Wind Speed 3 mph (South)    
Max Wind Speed 12 mph    
Max Gust Speed 16 mph    
Visibility 10 miles    
Events      
T = Trace of Precipitation, MM = Missing Value Source: NWS Daily Summary

Daily Weather History Graph

Daily Weather History Graph

Search for Another Location

Airport:

Trip Planner

Search our weather history database for the weather conditions in past years. The results will help you decide how hot, cold, wet, or windy it might be!

Date:

Astronomy

Jan. 08, 2013 Rise Set
Actual Time 7:30 AM EST 4:31 PM EST
Civil Twilight 6:57 AM EST 5:04 PM EST
Nautical Twilight 6:20 AM EST 5:41 PM EST
Astronomical Twilight 5:45 AM EST 6:16 PM EST
Moon 3:59 AM EST (1/8) 1:31 PM EST (1/8)
Length of Visible Light 10h 07m
Length of Day
9h 01m
Waning Crescent, 14% of the Moon is Illuminated
Jan 8
Waning Crescent
Jan 11
New
Jan 18
First Quarter
Jan 26
Full
Feb 3
Last Quarter

Hourly Weather History & Observations

Time (EST) Temp. Windchill Dew Point Humidity Pressure Visibility Wind Dir Wind Speed Gust Speed Precip Events Conditions
12:53 AM 5.0 °F -5.6 °F 3.0 °F 92% 30.19 in 10.0 mi SSW 5.8 mph - N/A   Clear
1:53 AM 10.0 °F 3.6 °F 8.1 °F 92% 30.19 in 10.0 mi South 3.5 mph - N/A   Clear
2:53 AM 7.0 °F 0.1 °F 5.0 °F 92% 30.18 in 10.0 mi SSW 3.5 mph - N/A   Clear
3:53 AM 6.1 °F -4.3 °F 1.9 °F 83% 30.17 in 10.0 mi SW 5.8 mph - N/A   Clear
4:53 AM 8.1 °F - 6.1 °F 92% 30.17 in 10.0 mi Calm Calm - N/A   Clear
5:53 AM 10.0 °F 3.6 °F 8.1 °F 92% 30.19 in 10.0 mi Variable 3.5 mph - N/A   Clear
6:53 AM 10.0 °F - 7.0 °F 87% 30.20 in 10.0 mi Calm Calm - N/A   Clear
7:53 AM 10.9 °F - 8.1 °F 88% 30.22 in 10.0 mi Calm Calm - N/A   Clear
9:53 AM 25.0 °F 19.3 °F 19.9 °F 81% 30.24 in 10.0 mi South 4.6 mph - N/A   Clear
10:53 AM 30.0 °F 24.1 °F 21.9 °F 72% 30.24 in 10.0 mi SSE 5.8 mph - N/A   Clear
11:53 AM 30.9 °F 23.5 °F 23.0 °F 72% 30.24 in 10.0 mi SE 8.1 mph - 0.01 in   Clear
12:53 PM 33.1 °F 24.9 °F 24.1 °F 70% 30.23 in 10.0 mi SSE 10.4 mph - N/A   Partly Cloudy
1:53 PM 35.1 °F - 24.1 °F 64% 30.26 in 10.0 mi Calm Calm - N/A   Mostly Cloudy
2:53 PM 37.9 °F 33.5 °F 26.1 °F 62% 30.28 in 10.0 mi Variable 5.8 mph - N/A   Overcast
3:53 PM 37.0 °F - 26.1 °F 65% 30.30 in 10.0 mi Calm Calm - N/A   Overcast
4:53 PM 36.0 °F 33.3 °F 26.1 °F 67% 30.31 in 10.0 mi SW 3.5 mph - N/A   Scattered Clouds
5:53 PM 32.0 °F 28.7 °F 25.0 °F 75% 30.32 in 10.0 mi SW 3.5 mph - N/A   Clear
7:53 PM 30.0 °F - 24.1 °F 79% 30.36 in 10.0 mi Calm Calm - N/A   Clear
8:53 PM 23.0 °F - 21.0 °F 92% 30.36 in 8.0 mi Calm Calm - N/A   Clear
9:53 PM 23.0 °F - 19.0 °F 85% 30.34 in 8.0 mi Calm Calm - N/A   Clear
10:53 PM 19.0 °F - 16.0 °F 88% 30.35 in 8.0 mi Calm Calm - N/A   Clear